{"data":{"norad_id":65495,"epoch":"2026-05-25T01:56:56.554368Z","epoch_age_seconds":58090,"freshness":"FRESH","line1":"1 65495U 25198D   26145.08121012  .00013662  00000+0  47249-3 0  9993","line2":"2 65495  53.1591 276.3343 0001008  86.1365 273.9751 15.30203822 40319","mean_motion":15.30203822,"eccentricity":0.0001008,"inclination_deg":53.1591,"raan_deg":276.3343,"arg_perigee_deg":86.1365,"mean_anomaly_deg":273.9751,"bstar":0.00047249,"rev_number":4031,"period_min":94.105110658912,"perigee_km":474.51284090171,"apogee_km":475.89447437829,"semimajor_km":6853.34065764,"source":"CELESTRAK","updated_at":"2026-05-25T13:38:20.839990Z"}}